GW3895 Weather Reports


Display with metric or nautical units.
time (UTC)temp
F
wind
direction
speed
MPH
gust
MPH
rain 1hr
in
rain 24hr
in
rain mn
in
humidity
%
barometer
mb
20260504213735 77 174 1.0 7.0 0.00 0.00 0.00 29 1007.4
20260504212231 73 107 2.0 15.0 0.00 0.00 0.00 32 1007.9
20260504210728 73 135 2.0 7.0 0.00 0.00 0.00 31 1007.9
20260504205225 77 166 1.0 6.0 0.00 0.00 0.00 26 1007.9
20260504203720 74 145 1.0 7.0 0.00 0.00 0.00 30 1007.9
20260504202220 75 189 1.0 5.0 0.00 0.00 0.00 30 1008.2
20260504200718 75 203 1.0 12.0 0.00 0.00 0.00 28 1008.2
20260504195218 77 134 4.0 10.0 0.00 0.00 0.00 28 1007.9
20260504193714 76 192 2.0 6.0 0.00 0.00 0.00 29 1008.2
20260504192213 71 159 1.0 5.0 0.00 0.00 0.00 29 1008.5
20260504190709 71 8 0.0 3.0 0.00 0.00 0.00 29 1009.0
20260504185205 74 109 1.0 7.0 0.00 0.00 0.00 26 1008.5
20260504183659 73 84 2.0 10.0 0.00 0.00 0.00 26 1008.5
20260504182157 74 55 1.0 6.0 0.00 0.00 0.00 27 1008.5
20260504180657 73 93 1.0 9.0 0.00 0.00 0.00 28 1009.0
20260504175154 73 143 1.0 8.0 0.00 0.00 0.00 28 1009.0
20260504173652 72 114 0.0 5.0 0.00 0.00 0.00 28 1009.0
20260504172148 71 187 0.0 5.0 0.00 0.00 0.00 29 1009.0
20260504170644 70 349 1.0 4.0 0.00 0.00 0.00 31 1009.0
20260504150624 62 346 2.0 5.0 0.00 0.00 0.00 37 1010.1
20260504140609 61 346 2.0 5.0 0.00 0.00 0.00 38 1010.1
20260504130556 57 346 0.0 1.0 0.00 0.00 0.00 41 1009.7
20260504110531 60 341 2.0 6.0 0.00 0.00 0.00 39 1009.7
20260504100528 61 12 4.0 8.0 0.00 0.00 0.00 38 1010.1
20260504080504 59 355 0.0 0.0 0.00 0.00 0.00 44 1010.5
20260504050426 64 355 0.0 1.0 0.00 0.00 0.00 36 1010.5
20260504044921 64 355 2.0 4.0 0.00 0.00 0.00 35 1010.5
20260504043419 64 355 2.0 5.0 0.00 0.00 0.00 35 1010.5
20260504041915 65 355 2.0 5.0 0.00 0.00 0.00 35 1010.5
20260504040412 66 7 3.0 6.0 0.00 0.00 0.00 34 1010.1
20260504034907 64 8 2.0 4.0 0.00 0.00 0.00 36 1010.1
20260504033406 65 8 0.0 2.0 0.00 0.00 0.00 38 1010.1
20260504031901 66 8 0.0 2.0 0.00 0.00 0.00 38 1009.7
20260504030358 67 8 0.0 2.0 0.00 0.00 0.00 35 1009.7
20260504024854 67 8 1.0 4.0 0.00 0.00 0.00 35 1009.7
20260504023350 68 8 1.0 4.0 0.00 0.00 0.00 35 1009.7
20260504021850 68 8 1.0 4.0 0.00 0.00 0.00 35 1009.7
20260504020347 69 8 0.0 3.0 0.00 0.00 0.00 34 1009.7
20260504014847 70 8 0.0 2.0 0.00 0.00 0.00 33 1009.7
20260504013344 71 8 1.0 4.0 0.00 0.00 0.00 31 1009.7
20260504011842 72 8 0.0 1.0 0.00 0.00 0.00 30 1009.3
20260504010342 73 341 0.0 6.0 0.00 0.00 0.00 25 1009.3
20260504004839 73 197 1.0 7.0 0.00 0.00 0.00 25 1009.3
20260504003336 73 146 1.0 6.0 0.00 0.00 0.00 27 1009.7
20260504001833 74 126 1.0 4.0 0.00 0.00 0.00 27 1009.7
20260504000329 74 209 1.0 6.0 0.00 0.00 0.00 27 1009.7
20260503234826 75 119 1.0 7.0 0.00 0.00 0.00 27 1009.7
20260503233323 74 133 3.0 8.0 0.00 0.00 0.00 28 1010.1
20260503231821 72 116 2.0 7.0 0.00 0.00 0.00 30 1010.5
20260503230316 72 105 2.0 6.0 0.00 0.00 0.00 29 1010.9
20260503224812 74 143 2.0 7.0 0.00 0.00 0.00 28 1010.9
20260503223311 77 163 1.0 6.0 0.00 0.00 0.00 27 1010.9
20260503221808 76 244 1.0 9.0 0.00 0.00 0.00 27 1010.9
20260503220305 77 187 2.0 7.0 0.00 0.00 0.00 27 1011.3
20260503214803 76 177 1.0 6.0 0.00 0.00 0.00 27 1011.3